Left ArrowRight Arrow

Hourly Observations for May 5, 2023

Temp ( °F °C ) Dew Point ( °F °C ) Humidity (%) Winds ( mph kmh ) Pressure ( in mb ) Visibility ( mi km ) Precip ( " mm )
12:53 am 00:53 Clear 47 8.3 45 7.2 93 93 SSE 3 6 29.67 1005 10 16 0.00 0.00
1:53 am 01:53 Clear 47 8.3 44 6.7 90 90 E 3 6 29.67 1005 10 16 0.00 0.00
2:53 am 02:53 Clear 46 7.8 44 6.7 93 93 S 7 11 29.66 1005 10 16 0.00 0.00
3:53 am 03:53 Clear 45 7.2 43 6.1 93 93 S 7 11 29.71 1006 10 16 0.00 0.00
4:53 am 04:53 Mostly Clear 42 5.6 41 5 96 96 E 5 7 29.72 1006 10 16 0.00 0.00
5:53 am 05:53 Clear 41 5 41 5 100 100 Calm 29.72 1006 10 16 0.00 0.00
6:53 am 06:53 Sunny 44 6.7 44 6.7 100 100 SSW 3 6 29.72 1007 10 16 0.00 0.00
7:53 am 07:53 Sunny 50 10 47 8.3 89 89 WSW 3 6 29.72 1006 10 16 0.00 0.00
8:53 am 08:53 Sunny 54 12.2 47 8.3 77 77 SW 3 6 29.70 1006 10 16 0.00 0.00
9:53 am 09:53 Sunny 59 15 47 8.3 64 64 WSW 3 6 29.68 1005 10 16 0.00 0.00
10:53 am 10:53 Sunny 63 17.2 46 7.8 54 54 W 5 7 29.67 1005 10 16 0.00 0.00
11:53 am 11:53 Sunny 65 18.3 43 6.1 45 45 SW 9 15 29.65 1004 10 16 0.00 0.00
12:53 pm 12:53 Sunny 71 21.7 33 0.6 25 25 S 14 22 29.64 1004 10 16 0.00 0.00
1:53 pm 13:53 Sunny 72 22.2 27 -2.8 19 19 S 13 20 29.62 1003 10 16 0.00 0.00
2:53 pm 14:53 Sunny 74 23.3 27 -2.8 17 17 SSW 20 31 29.61 1003 10 16 0.00 0.00
3:06 pm 15:06 Mostly Sunny 70 21.1 27 -2.8 20 20 WSW 15 24 29.47 998 10 16 0.00 0.00
3:21 pm 15:21 Partly Cloudy 68 20 32 0 26 26 W 15 24 29.49 999 10 16 0.00 0.00
3:53 pm 15:53 Mostly Sunny 71 21.7 31 -0.6 23 23 WSW 13 20 29.62 1003 10 16 0.00 0.00
4:53 pm 16:53 Mostly Sunny 71 21.7 24 -4.4 17 17 SSW 23 37 29.62 1003 10 16 0.00 0.00
5:53 pm 17:53 Sunny 69 20.6 26 -3.3 20 20 SSW 25 41 29.65 1004 10 16 0.00 0.00
6:53 pm 18:53 Sunny 65 18.3 27 -2.8 24 24 SW 21 33 29.66 1005 10 16 0.00 0.00
7:53 pm 19:53 Sunny 59 15 30 -1.1 33 33 Calm 29.67 1005 10 16 0.00 0.00
8:53 pm 20:53 Cloudy 57 13.9 40 4.4 53 53 NNW 13 20 29.70 1006 10 16 0.00 0.00
9:53 pm 21:53 Mostly Cloudy 53 11.7 42 5.6 66 66 NNW 15 24 29.72 1006 10 16 0.00 0.00
10:53 pm 22:53 Mostly Cloudy 51 10.6 41 5 68 68 W 8 13 29.72 1007 10 16 0.00 0.00
11:19 pm 23:19 Cloudy with Nearby Thunderstorms 52 11.1 39 3.9 61 61 W 26 43 29.75 1007 10 16 0.00 0.00
11:53 pm 23:53 Cloudy with Light Rain 48 8.9 41 5 76 76 W 16 26 29.76 1008 10 16 0.01 0.13

Powered by Vaisala Xweather